Orbital Elements at Epoch 2459200.5 (2020-Dec-17.0) TDB
Reference: JPL 25 (heliocentric ecliptic J2000)
Element | Value | Uncertainty (1-sigma) | Units |
e | .03148123106488011 | 3.4773e-08 | |
a | 2.960701309311293 | 2.3e-08 | au |
q | 2.867494787278771 | 1.084e-07 | au |
i | 2.019415189112808 | 3.7724e-06 | deg |
node | 41.01462364103093 | 0.0001331 | deg |
peri | 198.4866743616897 | 0.00015536 | deg |
M | 246.087484719029 | 8.1838e-05 | deg |
tp | 2459789.288421824539 (2022-Jul-28.78842182) | 0.00042438 | TDB |
period | 1860.759823747323 5.09 | 2.1683e-05 5.936e-08 | d yr |
n | .193469353435957 | 2.2544e-09 | deg/d |
Q | 3.053907831343815 | 2.3724e-08 | au |
|
| | Orbit Determination Parameters
Additional Information
|